{"data":{"norad_id":50840,"epoch":"2026-05-24T12:35:26.099232Z","epoch_age_seconds":111976,"freshness":"FRESH","line1":"1 50840U 22001AP  26144.52460763  .00000196  00000+0  30376-4 0  9990","line2":"2 50840  53.2163 198.6838 0001012  79.3331 280.7775 15.08837621241703","mean_motion":15.08837621,"eccentricity":0.0001012,"inclination_deg":53.2163,"raan_deg":198.6838,"arg_perigee_deg":79.3331,"mean_anomaly_deg":280.7775,"bstar":3.0376e-5,"rev_number":24170,"period_min":95.437705155153,"perigee_km":539.05057039367,"apogee_km":540.45075085618,"semimajor_km":6917.8876606249,"source":"CELESTRAK","updated_at":"2026-05-25T13:38:16.881476Z"}}